Time,TemperatureF,DewpointF,PressureIn,WindDirection,WindDirectionDegrees,WindSpeedMPH,WindSpeedGustMPH,Humidity,HourlyPrecipIn,Conditions,Clouds,dailyrainin,SoftwareType,DateUTC
2013-03-14 00:01:00,33.4,21.4,29.96,West,279,10.0,10.0,61,0.00,,,0.10,Wunderground v.1.15,2013-03-14 04:01:00,
2013-03-14 00:05:00,33.3,21.7,29.96,WNW,296,9.0,10.0,62,0.00,,,0.00,Wunderground v.1.15,2013-03-14 04:05:00,
2013-03-14 00:11:00,33.1,21.9,29.97,NW,309,9.0,9.0,63,0.00,,,0.00,Wunderground v.1.15,2013-03-14 04:11:00,
2013-03-14 00:12:00,33.1,22.0,29.97,WNW,291,11.0,-999.0,64,-99.99,,,0.00,weatherlink.com 1.10,2013-03-14 04:12:00,
2013-03-14 00:26:00,32.6,21.8,29.96,WNW,298,8.0,8.0,64,0.00,,,0.00,Wunderground v.1.15,2013-03-14 04:26:00,
2013-03-14 00:41:00,32.5,20.0,29.96,WNW,292,10.0,-999.0,61,-99.99,,,0.00,weatherlink.com 1.10,2013-03-14 04:41:00,
2013-03-14 00:50:00,32.3,20.7,29.96,WNW,300,8.0,11.0,62,0.00,,,0.00,Wunderground v.1.15,2013-03-14 04:50:00,
2013-03-14 00:56:00,32.3,20.3,29.96,WNW,290,9.0,10.0,61,0.00,,,0.00,Wunderground v.1.15,2013-03-14 04:56:00,
2013-03-14 01:05:00,32.3,20.3,29.96,WNW,288,8.0,9.0,61,0.00,,,0.00,Wunderground v.1.15,2013-03-14 05:05:00,
2013-03-14 01:11:00,32.3,20.3,29.96,WNW,283,8.0,8.0,61,0.00,,,0.00,Wunderground v.1.15,2013-03-14 05:11:00,
2013-03-14 01:20:00,32.1,19.8,29.96,West,276,10.0,10.0,60,0.00,,,0.00,Wunderground v.1.15,2013-03-14 05:20:00,
2013-03-14 01:26:00,32.1,19.0,29.96,WNW,291,10.0,-999.0,60,-99.99,,,0.00,weatherlink.com 1.10,2013-03-14 05:26:00,
2013-03-14 01:40:00,32.2,19.9,29.96,West,279,10.0,10.0,60,0.00,,,0.00,Wunderground v.1.15,2013-03-14 05:40:00,
2013-03-14 01:45:00,32.2,19.9,29.96,WNW,291,10.0,14.0,60,0.00,,,0.00,Wunderground v.1.15,2013-03-14 05:45:00,
2013-03-14 01:57:00,32.2,19.0,29.97,NW,311,9.0,-999.0,59,-99.99,,,0.00,weatherlink.com 1.10,2013-03-14 05:57:00,
2013-03-14 02:10:00,32.3,18.8,29.96,WNW,296,12.0,12.0,57,0.00,,,0.00,Wunderground v.1.15,2013-03-14 06:10:00,
2013-03-14 02:16:00,32.3,18.3,29.96,NW,312,11.0,12.0,56,0.00,,,0.00,Wunderground v.1.15,2013-03-14 06:16:00,
2013-03-14 02:26:00,32.4,18.0,29.97,NW,325,6.0,-999.0,56,-99.99,,,0.00,weatherlink.com 1.10,2013-03-14 06:26:00,
2013-03-14 02:40:00,32.3,18.8,29.97,NW,309,8.0,8.0,57,0.00,,,0.00,Wunderground v.1.15,2013-03-14 06:40:00,
2013-03-14 02:46:00,32.1,18.6,29.97,WNW,298,8.0,10.0,57,0.00,,,0.00,Wunderground v.1.15,2013-03-14 06:46:00,
2013-03-14 02:56:00,31.8,18.0,29.97,West,276,10.0,-999.0,58,-99.99,,,0.00,weatherlink.com 1.10,2013-03-14 06:56:00,
2013-03-14 03:06:00,31.6,18.9,29.97,NW,326,9.0,11.0,59,0.00,,,0.00,Wunderground v.1.15,2013-03-14 07:06:00,
2013-03-14 03:11:00,31.5,19.0,29.97,WNW,286,5.0,-999.0,59,-99.99,,,0.00,weatherlink.com 1.10,2013-03-14 07:11:00,
2013-03-14 03:20:00,31.4,18.7,29.97,NW,306,8.0,8.0,59,0.00,,,0.00,Wunderground v.1.15,2013-03-14 07:20:00,
2013-03-14 03:26:00,31.2,18.5,29.97,WNW,288,6.0,8.0,59,0.00,,,0.00,Wunderground v.1.15,2013-03-14 07:26:00,
2013-03-14 03:31:00,31.1,18.0,29.96,WSW,258,4.0,5.0,58,0.00,,,0.00,Wunderground v.1.15,2013-03-14 07:31:00,
2013-03-14 03:40:00,31.0,17.5,29.96,WNW,289,6.0,7.0,57,0.00,,,0.00,Wunderground v.1.15,2013-03-14 07:40:00,
2013-03-14 03:50:00,31.0,17.1,29.95,WNW,298,9.0,9.0,56,0.00,,,0.00,Wunderground v.1.15,2013-03-14 07:50:00,
2013-03-14 03:57:00,31.0,17.0,29.95,NW,317,6.0,-999.0,56,-99.99,,,0.00,weatherlink.com 1.10,2013-03-14 07:57:00,
2013-03-14 04:05:00,30.8,17.3,29.95,WNW,286,8.0,10.0,57,0.00,,,0.00,Wunderground v.1.15,2013-03-14 08:05:00,
2013-03-14 04:10:00,30.6,18.0,29.95,West,279,6.0,10.0,59,0.00,,,0.00,Wunderground v.1.15,2013-03-14 08:10:00,
2013-03-14 04:25:00,30.1,18.3,29.95,West,263,4.0,4.0,61,0.00,,,0.00,Wunderground v.1.15,2013-03-14 08:25:00,
2013-03-14 04:30:00,30.0,18.2,29.95,West,267,4.0,4.0,61,0.00,,,0.00,Wunderground v.1.15,2013-03-14 08:30:00,
2013-03-14 04:36:00,29.9,18.5,29.95,West,259,3.0,4.0,62,0.00,,,0.00,Wunderground v.1.15,2013-03-14 08:36:00,
2013-03-14 04:41:00,29.7,19.0,29.95,West,271,6.0,-999.0,64,-99.99,,,0.00,weatherlink.com 1.10,2013-03-14 08:41:00,
2013-03-14 04:51:00,29.9,19.6,29.95,West,272,6.0,6.0,65,0.00,,,0.00,Wunderground v.1.15,2013-03-14 08:51:00,
2013-03-14 04:56:00,29.8,19.0,29.95,West,264,9.0,-999.0,65,-99.99,,,0.00,weatherlink.com 1.10,2013-03-14 08:56:00,
2013-03-14 05:11:00,29.8,19.0,29.95,WNW,283,8.0,-999.0,65,-99.99,,,0.00,weatherlink.com 1.10,2013-03-14 09:11:00,
2013-03-14 05:21:00,29.8,19.5,29.95,SW,229,7.0,11.0,65,0.00,,,0.00,Wunderground v.1.15,2013-03-14 09:21:00,
2013-03-14 05:26:00,29.8,19.0,29.95,WNW,287,5.0,-999.0,65,-99.99,,,0.00,weatherlink.com 1.10,2013-03-14 09:26:00,
2013-03-14 05:36:00,29.9,19.2,29.95,West,271,7.0,11.0,64,0.00,,,0.00,Wunderground v.1.15,2013-03-14 09:36:00,
2013-03-14 05:41:00,30.0,19.0,29.95,West,265,8.0,-999.0,64,-99.99,,,0.00,weatherlink.com 1.10,2013-03-14 09:41:00,
2013-03-14 05:57:00,29.9,19.0,29.95,WNW,300,8.0,-999.0,64,-99.99,,,0.00,weatherlink.com 1.10,2013-03-14 09:57:00,
2013-03-14 06:06:00,30.0,19.3,29.96,WNW,299,7.0,7.0,64,0.00,,,0.00,Wunderground v.1.15,2013-03-14 10:06:00,
2013-03-14 06:11:00,30.1,19.0,29.96,WNW,302,4.0,-999.0,64,-99.99,,,0.00,weatherlink.com 1.10,2013-03-14 10:11:00,
2013-03-14 06:26:00,30.3,19.6,29.97,WNW,287,8.0,8.0,64,0.00,,,0.00,Wunderground v.1.15,2013-03-14 10:26:00,
2013-03-14 06:35:00,30.4,19.7,29.97,West,267,6.0,8.0,64,0.00,,,0.00,Wunderground v.1.15,2013-03-14 10:35:00,
2013-03-14 06:41:00,30.6,19.5,29.97,West,281,6.0,6.0,63,0.00,,,0.00,Wunderground v.1.15,2013-03-14 10:41:00,
2013-03-14 06:51:00,30.9,19.4,29.97,NW,306,8.0,15.0,62,0.00,,,0.00,Wunderground v.1.15,2013-03-14 10:51:00,
2013-03-14 06:57:00,31.0,19.0,29.97,NW,309,8.0,-999.0,62,-99.99,,,0.00,weatherlink.com 1.10,2013-03-14 10:57:00,
2013-03-14 07:11:00,31.3,19.0,29.98,NNW,334,8.0,-999.0,61,-99.99,,,0.00,weatherlink.com 1.10,2013-03-14 11:11:00,
2013-03-14 07:20:00,31.5,18.8,29.98,WNW,286,11.0,11.0,59,0.00,,,0.00,Wunderground v.1.15,2013-03-14 11:20:00,
2013-03-14 07:26:00,31.5,19.0,29.98,NW,313,12.0,-999.0,59,-99.99,,,0.00,weatherlink.com 1.10,2013-03-14 11:26:00,
2013-03-14 07:35:00,31.6,18.5,29.98,NW,304,16.0,18.0,58,0.00,,,0.00,Wunderground v.1.15,2013-03-14 11:35:00,
2013-03-14 07:41:00,31.6,18.5,29.98,NW,310,15.0,18.0,58,0.00,,,0.00,Wunderground v.1.15,2013-03-14 11:41:00,
2013-03-14 08:00:00,31.4,19.1,30.00,NW,309,16.0,16.0,60,0.00,,,0.00,Wunderground v.1.15,2013-03-14 12:00:00,
2013-03-14 08:06:00,31.4,18.7,29.99,WNW,286,15.0,16.0,59,0.00,,,0.00,Wunderground v.1.15,2013-03-14 12:06:00,
2013-03-14 08:11:00,31.5,19.0,29.99,NW,310,14.0,-999.0,59,-99.99,,,0.00,weatherlink.com 1.10,2013-03-14 12:11:00,
2013-03-14 08:20:00,31.7,17.4,30.00,WNW,292,15.0,21.0,55,0.00,,,0.00,Wunderground v.1.15,2013-03-14 12:20:00,
2013-03-14 08:26:00,31.7,16.9,30.00,West,278,15.0,15.0,54,0.00,,,0.00,Wunderground v.1.15,2013-03-14 12:26:00,
2013-03-14 08:35:00,31.7,16.5,30.00,WNW,290,13.0,15.0,53,0.00,,,0.00,Wunderground v.1.15,2013-03-14 12:35:00,
2013-03-14 08:41:00,31.6,16.0,30.01,West,276,14.0,14.0,52,0.00,,,0.00,Wunderground v.1.15,2013-03-14 12:41:00,
2013-03-14 08:55:00,31.4,15.8,30.01,WNW,296,15.0,19.0,52,0.00,,,0.00,Wunderground v.1.15,2013-03-14 12:55:00,
2013-03-14 09:01:00,31.4,15.8,30.01,NW,313,12.0,14.0,52,0.00,,,0.00,Wunderground v.1.15,2013-03-14 13:01:00,
2013-03-14 09:10:00,32.0,15.4,30.01,West,280,14.0,14.0,50,0.00,,,0.00,Wunderground v.1.15,2013-03-14 13:10:00,
2013-03-14 09:16:00,32.5,15.9,30.01,WNW,288,14.0,18.0,50,0.00,,,0.00,Wunderground v.1.15,2013-03-14 13:16:00,
2013-03-14 09:26:00,32.9,15.0,30.00,West,272,21.0,-999.0,49,-99.99,,,0.00,weatherlink.com 1.10,2013-03-14 13:26:00,
2013-03-14 09:36:00,33.0,16.4,30.01,NNW,331,15.0,15.0,50,0.00,,,0.00,Wunderground v.1.15,2013-03-14 13:36:00,
2013-03-14 09:41:00,33.0,15.0,30.01,NW,310,10.0,-999.0,48,-99.99,,,0.00,weatherlink.com 1.10,2013-03-14 13:41:00,
2013-03-14 09:55:00,32.9,15.8,30.01,NW,313,17.0,17.0,49,0.00,,,0.00,Wunderground v.1.15,2013-03-14 13:55:00,
2013-03-14 10:01:00,32.8,15.2,30.01,NW,307,17.0,17.0,48,0.00,,,0.00,Wunderground v.1.15,2013-03-14 14:01:00,
2013-03-14 10:11:00,32.9,15.0,30.01,NNW,328,14.0,-999.0,48,-99.99,,,0.00,weatherlink.com 1.10,2013-03-14 14:11:00,
2013-03-14 10:25:00,33.2,14.6,30.01,NW,319,17.0,23.0,46,0.00,,,0.00,Wunderground v.1.15,2013-03-14 14:25:00,
2013-03-14 10:30:00,33.0,14.4,30.01,West,281,19.0,24.0,46,0.00,,,0.00,Wunderground v.1.15,2013-03-14 14:30:00,
2013-03-14 10:41:00,33.2,14.0,30.00,WNW,291,25.0,-999.0,46,-99.99,,,0.00,weatherlink.com 1.10,2013-03-14 14:41:00,
2013-03-14 10:51:00,33.2,14.6,30.00,NW,309,19.0,19.0,46,0.00,,,0.00,Wunderground v.1.15,2013-03-14 14:51:00,
2013-03-14 10:57:00,33.7,15.0,30.00,NW,304,12.0,-999.0,46,-99.99,,,0.00,weatherlink.com 1.10,2013-03-14 14:57:00,
2013-03-14 11:05:00,33.5,14.9,30.00,NW,310,16.0,24.0,46,0.00,,,0.00,Wunderground v.1.15,2013-03-14 15:05:00,
2013-03-14 11:10:00,33.7,15.1,30.00,NW,308,18.0,24.0,46,0.00,,,0.00,Wunderground v.1.15,2013-03-14 15:10:00,
2013-03-14 11:25:00,34.4,15.7,30.00,WNW,288,16.0,16.0,46,0.00,,,0.00,Wunderground v.1.15,2013-03-14 15:25:00,
2013-03-14 11:40:00,34.7,15.5,30.00,NW,309,17.0,17.0,45,0.00,,,0.00,Wunderground v.1.15,2013-03-14 15:40:00,
2013-03-14 11:46:00,34.3,14.6,30.00,NW,323,16.0,17.0,44,0.00,,,0.00,Wunderground v.1.15,2013-03-14 15:46:00,
2013-03-14 11:55:00,34.6,14.9,29.99,NW,313,16.0,25.0,44,0.00,,,0.00,Wunderground v.1.15,2013-03-14 15:55:00,
2013-03-14 12:11:00,35.1,15.0,29.98,NW,317,12.0,-999.0,43,-99.99,,,0.00,weatherlink.com 1.10,2013-03-14 16:11:00,
2013-03-14 12:20:00,35.9,16.6,29.98,NW,306,13.0,15.0,45,0.00,,,0.00,Wunderground v.1.15,2013-03-14 16:20:00,
2013-03-14 12:26:00,35.6,14.0,29.98,WNW,298,17.0,-999.0,42,-99.99,,,0.00,weatherlink.com 1.10,2013-03-14 16:26:00,
2013-03-14 12:35:00,35.6,15.3,29.98,NNW,333,16.0,17.0,43,0.00,,,0.00,Wunderground v.1.15,2013-03-14 16:35:00,
2013-03-14 12:41:00,36.1,15.2,29.98,North,355,17.0,17.0,42,0.00,,,0.00,Wunderground v.1.15,2013-03-14 16:41:00,
2013-03-14 12:56:00,36.2,16.0,29.98,NW,313,11.0,-999.0,43,-99.99,,,0.00,weatherlink.com 1.10,2013-03-14 16:56:00,
2013-03-14 13:11:00,36.2,16.0,29.97,NW,309,9.0,-999.0,43,-99.99,,,0.00,weatherlink.com 1.10,2013-03-14 17:11:00,
2013-03-14 13:20:00,36.9,15.9,29.97,WNW,291,12.0,15.0,42,0.00,,,0.00,Wunderground v.1.15,2013-03-14 17:20:00,
2013-03-14 13:27:00,37.1,17.0,29.97,NW,309,10.0,-999.0,44,-99.99,,,0.00,weatherlink.com 1.10,2013-03-14 17:27:00,
2013-03-14 13:35:00,37.7,16.1,29.96,NNW,331,15.0,15.0,41,0.00,,,0.00,Wunderground v.1.15,2013-03-14 17:35:00,
2013-03-14 13:41:00,37.6,16.5,29.96,WNW,296,16.0,16.0,42,0.00,,,0.00,Wunderground v.1.15,2013-03-14 17:41:00,
2013-03-14 13:56:00,38.2,17.0,29.95,West,281,21.0,-999.0,43,-99.99,,,0.00,weatherlink.com 1.10,2013-03-14 17:56:00,
2013-03-14 14:06:00,36.9,15.9,29.96,NW,326,16.0,19.0,42,0.00,,,0.00,Wunderground v.1.15,2013-03-14 18:06:00,
2013-03-14 14:12:00,37.0,16.0,29.96,NNW,333,12.0,-999.0,42,-99.99,,,0.00,weatherlink.com 1.10,2013-03-14 18:12:00,
2013-03-14 14:20:00,38.0,17.5,29.95,WNW,288,13.0,22.0,43,0.00,,,0.00,Wunderground v.1.15,2013-03-14 18:20:00,
2013-03-14 14:26:00,38.2,16.5,29.95,NW,304,15.0,22.0,41,0.00,,,0.00,Wunderground v.1.15,2013-03-14 18:26:00,
2013-03-14 14:35:00,37.9,16.3,29.94,NW,313,16.0,22.0,41,0.00,,,0.00,Wunderground v.1.15,2013-03-14 18:35:00,
2013-03-14 14:41:00,38.2,15.4,29.94,NW,312,16.0,22.0,39,0.00,,,0.00,Wunderground v.1.15,2013-03-14 18:41:00,
2013-03-14 14:50:00,38.9,17.2,29.93,NW,315,14.0,14.0,41,0.00,,,0.00,Wunderground v.1.15,2013-03-14 18:50:00,
2013-03-14 14:56:00,39.1,16.8,29.93,NNW,344,13.0,17.0,40,0.00,,,0.00,Wunderground v.1.15,2013-03-14 18:56:00,
2013-03-14 15:11:00,38.7,16.0,29.93,West,270,14.0,-999.0,39,-99.99,,,0.00,weatherlink.com 1.10,2013-03-14 19:11:00,
2013-03-14 15:20:00,39.2,16.3,29.93,WNW,287,14.0,14.0,39,0.00,,,0.00,Wunderground v.1.15,2013-03-14 19:20:00,
2013-03-14 15:26:00,39.3,17.0,29.93,NW,320,12.0,-999.0,40,-99.99,,,0.00,weatherlink.com 1.10,2013-03-14 19:26:00,
2013-03-14 15:35:00,39.4,15.9,29.93,WNW,298,13.0,15.0,38,0.00,,,0.00,Wunderground v.1.15,2013-03-14 19:35:00,
2013-03-14 15:41:00,39.5,15.3,29.92,North,5,14.0,14.0,37,0.00,,,0.00,Wunderground v.1.15,2013-03-14 19:41:00,
2013-03-14 15:46:00,40.2,16.6,29.92,NW,313,13.0,14.0,38,0.00,,,0.00,Wunderground v.1.15,2013-03-14 19:46:00,
2013-03-14 15:55:00,40.0,16.4,29.92,NW,313,14.0,14.0,38,0.00,,,0.00,Wunderground v.1.15,2013-03-14 19:55:00,
2013-03-14 16:06:00,40.1,16.5,29.92,NW,321,15.0,25.0,38,0.00,,,0.00,Wunderground v.1.15,2013-03-14 20:06:00,
2013-03-14 16:11:00,40.0,16.4,29.93,NW,317,16.0,25.0,38,0.00,,,0.00,Wunderground v.1.15,2013-03-14 20:11:00,
2013-03-14 16:21:00,39.6,16.0,29.93,NW,306,15.0,17.0,38,0.00,,,0.00,Wunderground v.1.15,2013-03-14 20:21:00,
2013-03-14 16:27:00,39.4,16.0,29.93,WNW,299,21.0,-999.0,38,-99.99,,,0.00,weatherlink.com 1.10,2013-03-14 20:27:00,
2013-03-14 16:42:00,39.0,17.0,29.93,NW,304,9.0,-999.0,41,-99.99,,,0.00,weatherlink.com 1.10,2013-03-14 20:42:00,
2013-03-14 16:50:00,38.7,17.0,29.93,WNW,292,14.0,22.0,41,0.00,,,0.00,Wunderground v.1.15,2013-03-14 20:50:00,
2013-03-14 16:56:00,38.7,17.5,29.93,West,273,16.0,22.0,42,0.00,,,0.00,Wunderground v.1.15,2013-03-14 20:56:00,
2013-03-14 17:05:00,38.8,17.6,29.93,NW,313,15.0,16.0,42,0.00,,,0.00,Wunderground v.1.15,2013-03-14 21:05:00,
2013-03-14 17:25:00,38.4,16.1,29.94,WNW,298,17.0,25.0,40,0.00,,,0.00,Wunderground v.1.15,2013-03-14 21:25:00,
2013-03-14 17:31:00,38.5,16.8,29.94,NW,316,17.0,25.0,41,0.00,,,0.00,Wunderground v.1.15,2013-03-14 21:31:00,
2013-03-14 17:41:00,38.9,17.0,29.94,NW,323,20.0,-999.0,41,-99.99,,,0.00,weatherlink.com 1.10,2013-03-14 21:41:00,
2013-03-14 17:51:00,38.5,15.7,29.94,NNW,335,14.0,14.0,39,0.00,,,0.00,Wunderground v.1.15,2013-03-14 21:51:00,
2013-03-14 17:56:00,38.4,15.0,29.94,NW,320,25.0,-999.0,39,-99.99,,,0.00,weatherlink.com 1.10,2013-03-14 21:56:00,
2013-03-14 18:05:00,38.1,15.9,29.95,NW,306,16.0,16.0,40,0.00,,,0.00,Wunderground v.1.15,2013-03-14 22:05:00,
2013-03-14 18:10:00,37.9,16.3,29.95,West,272,16.0,17.0,41,0.00,,,0.00,Wunderground v.1.15,2013-03-14 22:10:00,
2013-03-14 18:25:00,37.7,15.5,29.95,WNW,297,15.0,15.0,40,0.00,,,0.00,Wunderground v.1.15,2013-03-14 22:25:00,
2013-03-14 18:40:00,37.5,15.9,29.95,WNW,294,16.0,16.0,41,0.00,,,0.00,Wunderground v.1.15,2013-03-14 22:40:00,
2013-03-14 18:46:00,37.3,15.7,29.95,WNW,293,14.0,16.0,41,0.00,,,0.00,Wunderground v.1.15,2013-03-14 22:46:00,
2013-03-14 18:56:00,37.1,16.1,29.96,West,280,11.0,11.0,42,0.00,,,0.00,Wunderground v.1.15,2013-03-14 22:56:00,
2013-03-14 19:01:00,36.9,16.5,29.96,NW,312,10.0,10.0,43,0.00,,,0.00,Wunderground v.1.15,2013-03-14 23:01:00,
2013-03-14 19:11:00,36.5,17.7,29.96,WNW,286,9.0,10.0,46,0.00,,,0.00,Wunderground v.1.15,2013-03-14 23:11:00,
2013-03-14 19:26:00,36.3,15.9,29.96,NW,312,8.0,10.0,43,0.00,,,0.00,Wunderground v.1.15,2013-03-14 23:26:00,
2013-03-14 19:31:00,36.4,15.5,29.96,NW,307,9.0,10.0,42,0.00,,,0.00,Wunderground v.1.15,2013-03-14 23:31:00,
2013-03-14 19:41:00,36.4,15.0,29.97,WNW,288,5.0,-999.0,42,-99.99,,,0.00,weatherlink.com 1.10,2013-03-14 23:41:00,
2013-03-14 19:51:00,36.1,15.2,29.97,WNW,290,8.0,12.0,42,0.00,,,0.00,Wunderground v.1.15,2013-03-14 23:51:00,
2013-03-14 19:56:00,35.9,15.0,29.97,WNW,286,5.0,-999.0,43,-99.99,,,0.00,weatherlink.com 1.10,2013-03-14 23:56:00,
2013-03-14 20:10:00,35.5,15.7,29.97,WNW,282,6.0,8.0,44,0.00,,,0.00,Wunderground v.1.15,2013-03-15 00:10:00,
2013-03-14 20:16:00,35.3,16.0,29.97,WSW,257,7.0,8.0,45,0.00,,,0.00,Wunderground v.1.15,2013-03-15 00:16:00,
2013-03-14 20:25:00,35.3,16.0,29.98,West,280,7.0,7.0,45,0.00,,,0.00,Wunderground v.1.15,2013-03-15 00:25:00,
2013-03-14 20:31:00,35.2,16.0,29.98,WNW,290,6.0,7.0,45,0.00,,,0.00,Wunderground v.1.15,2013-03-15 00:31:00,
2013-03-14 20:40:00,35.2,16.0,29.98,WNW,295,6.0,7.0,45,0.00,,,0.00,Wunderground v.1.15,2013-03-15 00:40:00,
2013-03-14 20:55:00,35.0,15.8,29.98,WNW,291,8.0,8.0,45,0.00,,,0.00,Wunderground v.1.15,2013-03-15 00:55:00,
2013-03-14 21:01:00,35.0,15.8,29.98,WNW,299,7.0,9.0,45,0.00,,,0.00,Wunderground v.1.15,2013-03-15 01:01:00,
2013-03-14 21:10:00,34.8,15.6,29.98,West,278,7.0,9.0,45,0.00,,,0.00,Wunderground v.1.15,2013-03-15 01:10:00,
2013-03-14 21:26:00,34.6,16.0,29.99,WNW,300,8.0,-999.0,46,-99.99,,,0.00,weatherlink.com 1.10,2013-03-15 01:26:00,
2013-03-14 21:40:00,34.7,15.5,29.99,NW,322,9.0,11.0,45,0.00,,,0.00,Wunderground v.1.15,2013-03-15 01:40:00,
2013-03-14 21:46:00,34.8,15.6,29.99,WNW,294,10.0,10.0,45,0.00,,,0.00,Wunderground v.1.15,2013-03-15 01:46:00,
2013-03-14 21:55:00,34.6,15.9,29.99,WNW,298,9.0,10.0,46,0.00,,,0.00,Wunderground v.1.15,2013-03-15 01:55:00,
2013-03-14 22:10:00,34.8,15.6,29.99,WNW,286,11.0,11.0,45,0.00,,,0.00,Wunderground v.1.15,2013-03-15 02:10:00,
2013-03-14 22:25:00,34.4,15.7,30.00,WNW,296,8.0,8.0,46,0.00,,,0.00,Wunderground v.1.15,2013-03-15 02:25:00,
2013-03-14 22:31:00,34.4,14.7,30.00,NW,306,8.0,11.0,44,0.00,,,0.00,Wunderground v.1.15,2013-03-15 02:31:00,
2013-03-14 22:41:00,34.3,14.6,30.00,NW,306,7.0,8.0,44,0.00,,,0.00,Wunderground v.1.15,2013-03-15 02:41:00,
2013-03-14 22:50:00,34.2,14.5,30.00,NW,317,6.0,13.0,44,0.00,,,0.00,Wunderground v.1.15,2013-03-15 02:50:00,
2013-03-14 22:55:00,34.3,14.6,30.00,WNW,291,8.0,13.0,44,0.00,,,0.00,Wunderground v.1.15,2013-03-15 02:55:00,
2013-03-14 23:01:00,34.3,14.6,30.00,NW,315,8.0,10.0,44,0.00,,,0.00,Wunderground v.1.15,2013-03-15 03:01:00,
2013-03-14 23:10:00,34.2,14.5,30.00,NW,318,9.0,10.0,44,0.00,,,0.00,Wunderground v.1.15,2013-03-15 03:10:00,
2013-03-14 23:16:00,34.1,14.4,30.00,NW,306,9.0,12.0,44,0.00,,,0.00,Wunderground v.1.15,2013-03-15 03:16:00,
2013-03-14 23:26:00,33.7,14.6,30.00,NW,320,9.0,12.0,45,0.00,,,0.00,Wunderground v.1.15,2013-03-15 03:26:00,
2013-03-14 23:40:00,33.5,14.4,30.00,WNW,296,8.0,12.0,45,0.00,,,0.00,Wunderground v.1.15,2013-03-15 03:40:00,
2013-03-14 23:45:00,33.5,14.4,30.00,NNW,328,8.0,12.0,45,0.00,,,0.00,Wunderground v.1.15,2013-03-15 03:45:00,
2013-03-14 23:56:00,33.5,14.0,30.00,WNW,294,7.0,-999.0,45,-99.99,,,0.00,weatherlink.com 1.10,2013-03-15 03:56:00,